User: anonymous   Login
Location: Caltech
(34.1382°N, 118.1253°W)
Time: 10:41:31
(UTC-08:00)
Language:

GPS 2-04 Rocket1 - Orbit

View from above orbital plane
View from above orbital plane
View from above satellite
View from above satellite

Ground track
Ground track

The orbit data is extracted from the following two-line orbital elements,

1 20303U 89085B   15063.50892950  .00008526  00000-0  36652-3 0  9997
2 20303 035.6318 192.5329 0127767 021.3119 022.5157 15.14858218373316
Epoch (UTC): 04 March 2015 12:12:51
Eccentricity: 0.0127767
inclination: 35.6318°
perigee height: 433 km
apogee height: 609 km
right ascension of ascending node: 192.5329°
argument of perigee: 21.3119°
revolutions per day: 15.14858218
mean anomaly at epoch: 22.5157°
orbit number at epoch: 37331

The dashed part of the orbit path shows where the satellite is in the earth's shadow,  

DLR